$Date,$Time,DM0201B,DM0203B,DM0205B,DM0207B,DM0209B
12/02/98,00:00:01,529,164,-13,568,957
12/02/98,00:05:01,436,166,-12,578,957
12/02/98,00:10:01,491,168,-12,588,957
12/02/98,00:15:01,495,168,-12,583,957
12/02/98,00:20:01,450,170,-12,586,959
12/02/98,00:25:01,429,170,-12,586,959
12/02/98,00:30:01,459,173,-12,577,959
12/02/98,00:35:01,533,171,-12,178,959
12/02/98,00:40:01,528,161,-12,495,957
12/02/98,00:45:01,450,161,-12,624,957
12/02/98,00:50:01,563,162,-11,642,957
12/02/98,00:55:01,574,162,-11,623,957
12/02/98,01:00:01,514,171,-11,617,957
12/02/98,01:05:01,574,157,-11,648,957
12/02/98,01:10:01,476,156,-11,714,957
12/02/98,01:15:01,525,166,-11,716,957
12/02/98,01:20:01,519,166,-11,594,957
12/02/98,01:25:01,555,166,-11,593,957
12/02/98,01:30:01,601,166,-11,613,957
12/02/98,01:35:01,469,166,-11,583,957
12/02/98,01:40:01,484,166,-11,659,957
12/02/98,01:45:01,451,166,-11,718,957
12/02/98,01:50:01,457,166,-11,729,957
12/02/98,01:55:01,537,162,-10,726,957
12/02/98,02:00:01,472,160,-10,713,957
12/02/98,02:05:01,503,163,-10,582,957
12/02/98,02:10:01,513,163,-10,615,957
12/02/98,02:15:01,481,163,-10,532,957
12/02/98,02:20:01,493,163,-10,399,957
12/02/98,02:25:01,629,163,-11,393,957
12/02/98,02:30:01,552,167,-11,349,957
12/02/98,02:35:01,531,167,-11,349,957
12/02/98,02:40:01,608,167,-11,331,957
12/02/98,02:45:01,528,165,-11,502,957
12/02/98,02:50:01,624,165,-11,434,957
12/02/98,02:55:01,465,165,-11,425,957
12/02/98,03:00:01,514,163,-10,410,957
12/02/98,03:05:01,473,159,-10,478,957
12/02/98,03:10:01,452,160,-9,568,957
12/02/98,03:15:01,459,155,-9,576,957
12/02/98,03:20:01,511,168,-9,517,957
12/02/98,03:25:01,443,167,-10,400,959
12/02/98,03:30:01,431,159,-10,466,959
12/02/98,03:35:01,427,161,-10,327,959
12/02/98,03:40:01,400,151,-11,305,959
12/02/98,03:45:01,394,157,-11,281,959
12/02/98,03:50:01,473,171,-11,283,959
12/02/98,03:55:01,439,167,-12,274,959
12/02/98,04:00:01,393,165,-12,276,959
12/02/98,04:05:01,393,161,-12,278,959
12/02/98,04:10:01,318,156,-12,260,959
12/02/98,04:15:01,374,157,-12,247,959
12/02/98,04:20:01,317,167,-12,247,959
12/02/98,04:25:01,422,154,-12,251,959
12/02/98,04:30:01,412,154,-12,257,959
12/02/98,04:35:01,377,154,-12,271,959
12/02/98,04:40:01,413,155,-12,251,959
12/02/98,04:45:01,366,151,-12,251,959
12/02/98,04:50:01,412,161,-12,249,959
12/02/98,04:55:01,413,160,-12,249,959
12/02/98,05:00:01,385,145,-12,238,959
12/02/98,05:05:01,349,155,-12,218,959
12/02/98,05:10:01,480,157,-13,198,959
12/02/98,05:15:01,427,157,-13,192,959
12/02/98,05:20:01,398,154,-13,186,959
12/02/98,05:25:01,420,165,-13,176,959
12/02/98,05:30:01,426,165,-13,153,959
12/02/98,05:35:01,425,175,-13,132,959
12/02/98,05:40:01,433,169,-13,108,959
12/02/98,05:45:01,427,169,-14,108,959
12/02/98,05:50:01,489,169,-14,104,959
12/02/98,05:55:01,404,169,-13,174,959
12/02/98,06:00:01,471,169,-12,285,959
12/02/98,06:05:01,491,169,-12,255,959
12/02/98,06:10:01,521,159,-12,352,959
12/02/98,06:15:01,443,159,-11,420,959
12/02/98,06:20:01,472,159,-10,448,959
12/02/98,06:25:01,524,159,-10,444,959
12/02/98,06:30:01,437,159,-10,438,959
12/02/98,06:35:01,499,159,-10,432,959
12/02/98,06:40:01,443,159,-10,427,959
12/02/98,06:45:01,481,159,-10,421,959
12/02/98,06:50:01,460,159,-10,417,959
12/02/98,06:55:01,419,159,-9,414,959
12/02/98,07:00:01,425,157,-10,408,959
12/02/98,07:05:01,469,167,-9,402,959
12/02/98,07:10:01,487,162,-9,398,959
12/02/98,07:15:01,513,162,-9,394,959
12/02/98,07:20:01,480,162,-9,388,959
12/02/98,07:25:01,500,166,-9,383,959
12/02/98,07:30:01,506,155,-9,377,959
12/02/98,07:35:01,505,158,-9,373,959
12/02/98,07:40:01,434,160,-9,368,959
12/02/98,07:45:01,456,163,-9,362,959
12/02/98,07:50:01,457,163,-9,356,959
12/02/98,07:55:01,394,163,-9,352,959
12/02/98,08:00:01,371,158,-10,347,959
12/02/98,08:05:01,390,158,-10,341,959
12/02/98,08:10:01,423,158,-10,337,959
12/02/98,08:15:01,410,158,-9,331,959
12/02/98,08:20:01,340,155,-9,325,959
12/02/98,08:25:01,377,165,-9,321,959
12/02/98,08:30:01,396,152,-8,317,959
12/02/98,08:35:01,340,164,-9,311,959
12/02/98,08:40:01,385,164,-8,304,959
12/02/98,08:45:01,401,164,-8,300,959
12/02/98,08:50:01,335,165,-8,295,959
12/02/98,08:55:01,340,163,-8,289,959
12/02/98,09:00:01,342,163,-8,285,959
12/02/98,09:05:01,331,171,-8,279,961
12/02/98,09:10:01,356,157,-8,275,961
12/02/98,09:15:01,336,161,-8,271,961
12/02/98,09:20:01,301,161,-8,183,961
12/02/98,09:25:01,335,170,-8,204,961
12/02/98,09:30:01,253,170,-9,62,961
12/02/98,09:35:01,240,160,-8,56,961
12/02/98,09:40:01,235,162,-8,60,961
12/02/98,09:45:01,203,174,-8,62,961
12/02/98,09:50:01,204,156,-8,83,961
12/02/98,09:55:01,229,171,-8,253,961
12/02/98,10:00:01,224,169,-8,253,961
12/02/98,10:05:01,196,166,-8,253,961
12/02/98,10:10:01,152,158,-8,255,961
12/02/98,10:15:01,164,157,-8,257,961
12/02/98,10:20:01,195,157,-8,255,961
12/02/98,10:25:01,113,200,-8,249,961
12/02/98,10:30:01,62,236,-8,225,961
12/02/98,10:35:01,11,344,-9,225,961
12/02/98,10:40:01,36,337,-9,219,961
12/02/98,10:45:01,92,38,-10,213,961
12/02/98,10:50:01,12,347,-10,198,961
12/02/98,10:55:01,75,345,-12,120,961
12/02/98,11:00:01,74,338,-12,191,961
12/02/98,11:05:01,83,354,-13,93,961
12/02/98,11:10:01,44,345,-13,94,961
12/02/98,11:15:01,79,356,-13,117,961
12/02/98,11:20:01,81,2,-13,228,961
12/02/98,11:25:01,31,20,-13,123,961
12/02/98,11:30:01,51,12,-13,112,961
12/02/98,11:35:01,53,2,-13,107,961
12/02/98,11:40:01,80,34,-13,87,961
12/02/98,11:45:01,29,23,-13,87,961
12/02/98,11:50:01,41,41,-13,75,961
12/02/98,11:55:01,3,76,-13,68,961
12/02/98,12:00:01,59,312,-13,70,961
12/02/98,12:05:01,59,332,-14,77,961
12/02/98,12:10:01,70,344,-14,84,961
12/02/98,12:15:01,67,341,-14,54,961
12/02/98,12:20:01,43,332,-14,72,961
12/02/98,12:25:01,43,342,-14,94,961
12/02/98,12:30:01,33,1,-14,87,961
12/02/98,12:35:01,31,343,-14,135,961
12/02/98,12:40:01,19,356,-14,71,961
12/02/98,12:45:01,31,346,-14,74,961
12/02/98,12:50:01,53,346,-14,70,961
12/02/98,12:55:01,42,346,-14,147,961
12/02/98,13:00:01,45,346,-14,70,961
12/02/98,13:05:01,32,334,-14,97,961
12/02/98,13:10:01,44,334,-14,71,961
12/02/98,13:15:01,21,334,-14,117,961
12/02/98,13:20:01,0,314,-14,67,961
12/02/98,13:25:01,6,268,-15,71,961
12/02/98,13:30:01,18,268,-15,78,961
12/02/98,13:35:01,8,268,-14,100,961
12/02/98,13:40:01,8,281,-14,114,961
12/02/98,13:45:01,8,281,-14,237,961
12/02/98,13:50:01,8,267,-14,185,961
12/02/98,13:55:01,8,267,-14,171,961
12/02/98,14:00:01,8,247,-14,167,961
12/02/98,14:05:01,8,247,-14,171,961
12/02/98,14:10:01,8,247,-14,173,961
12/02/98,14:15:01,8,181,-14,160,961
12/02/98,14:20:01,8,131,-14,180,961
12/02/98,14:25:01,8,88,-14,157,961
12/02/98,14:30:01,18,78,-14,181,961
12/02/98,14:35:01,8,60,-14,177,961
12/02/98,14:40:01,8,60,-14,116,961
12/02/98,14:45:01,20,73,-14,119,961
12/02/98,14:50:01,20,85,-14,156,961
12/02/98,14:55:01,32,86,-14,206,961
12/02/98,15:00:01,14,86,-14,135,961
12/02/98,15:05:01,14,86,-14,159,961
12/02/98,15:10:01,14,86,-14,167,961
12/02/98,15:15:01,11,96,-14,164,961
12/02/98,15:20:01,32,90,-14,96,961
12/02/98,15:25:01,10,119,-13,129,961
12/02/98,15:30:01,23,106,-13,113,961
12/02/98,15:35:01,14,133,-13,174,961
12/02/98,15:40:01,3,181,-13,181,961
12/02/98,15:45:01,3,139,-13,147,961
12/02/98,15:50:01,3,127,-13,145,961
12/02/98,15:55:01,5,116,-13,195,961
12/02/98,16:00:01,16,90,-13,151,961
12/02/98,16:05:01,4,104,-13,166,961
12/02/98,16:10:01,4,104,-13,159,961
12/02/98,16:15:01,4,58,-13,143,961
12/02/98,16:20:01,4,354,-13,151,961
12/02/98,16:25:01,4,1,-13,202,961
12/02/98,16:30:01,15,77,-13,358,961
12/02/98,16:35:01,15,103,-12,225,961
12/02/98,16:40:01,5,101,-12,230,961
12/02/98,16:45:01,5,230,-12,304,961
12/02/98,16:50:01,5,349,-12,256,961
12/02/98,16:55:01,5,349,-12,243,961
12/02/98,17:00:01,4,255,-12,216,961
12/02/98,17:05:01,3,33,-12,186,961
12/02/98,17:10:01,10,20,-12,186,961
12/02/98,17:15:01,0,42,-12,231,961
12/02/98,17:20:01,10,301,-12,269,961
12/02/98,17:25:01,23,295,-12,297,961
12/02/98,17:30:01,26,275,-12,402,961
12/02/98,17:35:01,17,262,-12,314,961
12/02/98,17:40:01,6,239,-12,246,961
12/02/98,17:45:01,18,239,-12,198,961
12/02/98,17:50:01,7,255,-12,263,961
12/02/98,17:55:01,7,271,-12,313,961
12/02/98,18:00:01,21,242,-12,334,961
12/02/98,18:05:01,9,194,-11,273,961
12/02/98,18:10:01,7,103,-11,200,961
12/02/98,18:15:01,7,107,-11,193,961
12/02/98,18:20:01,32,346,-11,216,961
12/02/98,18:25:01,0,258,-11,257,961
12/02/98,18:30:01,2,201,-11,258,961
12/02/98,18:35:01,3,229,-11,243,961
12/02/98,18:40:01,6,2,-11,229,961
12/02/98,18:45:01,9,268,-11,233,961
12/02/98,18:50:01,0,295,-11,253,961
12/02/98,18:55:01,38,349,-11,267,961
12/02/98,19:00:01,3,356,-11,310,961
12/02/98,19:05:01,3,132,-11,364,961
12/02/98,19:10:01,3,326,-11,312,961
12/02/98,19:15:01,3,293,-11,351,961
12/02/98,19:20:01,14,316,-11,390,961
12/02/98,19:25:01,24,310,-11,444,961
12/02/98,19:30:01,24,315,-11,424,961
12/02/98,19:35:01,0,306,-11,406,961
12/02/98,19:40:01,29,334,-11,275,961
12/02/98,19:45:01,12,327,-11,269,961
12/02/98,19:50:01,31,306,-11,307,961
12/02/98,19:55:01,49,328,-11,252,961
12/02/98,20:00:01,25,348,-11,251,961
12/02/98,20:05:01,35,345,-11,245,961
12/02/98,20:10:01,51,347,-11,214,961
12/02/98,20:15:01,47,350,-11,225,961
12/02/98,20:20:01,56,353,-11,234,961
12/02/98,20:25:01,42,11,-11,236,961
12/02/98,20:30:01,52,1,-11,255,961
12/02/98,20:35:01,58,358,-11,300,961
12/02/98,20:40:01,52,12,-12,350,961
12/02/98,20:45:01,64,12,-12,361,961
12/02/98,20:50:01,54,12,-12,325,961
12/02/98,20:55:01,39,14,-12,341,961
12/02/98,21:00:01,49,14,-12,377,961
12/02/98,21:05:01,49,2,-12,384,961
12/02/98,21:10:01,56,12,-12,366,961
12/02/98,21:15:01,43,5,-12,447,961
12/02/98,21:20:01,47,7,-12,372,961
12/02/98,21:25:01,36,11,-12,383,961
12/02/98,21:30:01,60,8,-12,484,961
12/02/98,21:35:01,55,20,-12,480,961
12/02/98,21:40:01,36,1,-12,305,961
12/02/98,21:45:01,57,349,-12,283,961
12/02/98,21:50:01,75,11,-12,275,961
12/02/98,21:55:01,36,341,-11,276,961
12/02/98,22:00:01,48,359,-12,303,961
12/02/98,22:05:01,38,357,-11,408,961
12/02/98,22:10:01,60,342,-11,305,961
12/02/98,22:15:01,29,355,-11,328,961
12/02/98,22:20:01,40,347,-11,416,961
12/02/98,22:25:01,58,327,-11,411,961
12/02/98,22:30:01,65,342,-11,477,961
12/02/98,22:35:01,58,352,-11,487,961
12/02/98,22:40:01,55,329,-11,465,961
12/02/98,22:45:01,34,326,-11,535,961
12/02/98,22:50:01,5,331,-11,530,961
12/02/98,22:55:01,26,324,-11,551,961
12/02/98,23:00:01,37,309,-11,558,961
12/02/98,23:05:01,18,307,-11,556,961
12/02/98,23:10:01,54,298,-11,564,961
12/02/98,23:15:01,32,303,-10,548,961
12/02/98,23:20:01,60,302,-10,567,961
12/02/98,23:25:01,39,310,-10,563,961
12/02/98,23:30:01,45,326,-11,510,961
12/02/98,23:35:01,68,2,-11,512,961
12/02/98,23:40:01,66,341,-11,543,961
12/02/98,23:45:01,65,338,-11,545,961
12/02/98,23:50:01,80,334,-11,548,961
12/02/98,23:55:01,39,342,-11,550,961
12/03/98,00:00:01,74,340,-11,554,961
